When you browse on this site, cookies collect data to enhance your experience and personalize the content and advertising you see.
Visit our Privacy Policy to learn more. By continuing to use the site, you agree to this use of cookies and data.
  • In Hungary
  • List of Countries
  • For 7 days
  • Water Temperature
  • Weather Map
  • News
  • Weather Widgets
  • user-avatar
    Login

    Hourly Weather Bolshaya Lubyanka

    Today, 22 October, Tuesday

    Time Temperature Precipitation Wind Pressure Humidity
    00:00 +13°C° 0.1 mm 1 mps 750 mmHg 90%
    01:00 +12°C° 0.8 mm 2 mps 750 mmHg 92%
    02:00 +12°C° 0.8 mm 2 mps 750 mmHg 93%
    03:00 +10°C° 0.8 mm 2 mps 750 mmHg 95%
    04:00 +10°C° 0.1 mm 2 mps 751 mmHg 95%
    05:00 +9°C° 0.1 mm 2 mps 751 mmHg 95%
    06:00 +9°C° 0.1 mm 2 mps 751 mmHg 95%
    07:00 +9°C° 0 mm 2 mps 752 mmHg 93%
    08:00 +10°C° 0 mm 1 mps 752 mmHg 91%
    09:00 +10°C° 0 mm 1 mps 752 mmHg 90%
    10:00 +11°C° 0 mm 1 mps 752 mmHg 84%
    11:00 +12°C° 0 mm 2 mps 752 mmHg 78%
    12:00 +13°C° 0 mm 2 mps 752 mmHg 72%
    13:00 +14°C° 0 mm 2 mps 752 mmHg 70%
    14:00 +14°C° 0 mm 2 mps 752 mmHg 68%
    15:00 +13°C° 0 mm 3 mps 752 mmHg 65%
    16:00 +13°C° 0 mm 2 mps 752 mmHg 70%
    17:00 +12°C° 0 mm 2 mps 752 mmHg 74%
    18:00 +11°C° 0 mm 1 mps 752 mmHg 79%
    19:00 +10°C° 0 mm 2 mps 752 mmHg 80%
    20:00 +9°C° 0 mm 2 mps 752 mmHg 81%
    21:00 +9°C° 0 mm 2 mps 751 mmHg 82%
    22:00 +9°C° 0 mm 3 mps 751 mmHg 83%
    23:00 +9°C° 0 mm 3 mps 751 mmHg 84%

    Tomorrow, 23 October, Wednesday

    Time Temperature Precipitation Wind Pressure Humidity
    00:00 +9°C° 0 mm 3 mps 750 mmHg 85%
    01:00 +10°C° 0 mm 4 mps 750 mmHg 86%
    02:00 +10°C° 0 mm 4 mps 750 mmHg 88%
    03:00 +11°C° 0 mm 4 mps 750 mmHg 89%
    04:00 +10°C° 0 mm 5 mps 750 mmHg 90%
    05:00 +10°C° 0 mm 5 mps 749 mmHg 92%
    06:00 +10°C° 0 mm 5 mps 749 mmHg 93%
    07:00 +12°C° 0 mm 5 mps 749 mmHg 92%
    08:00 +12°C° 0 mm 5 mps 749 mmHg 91%
    09:00 +12°C° 0 mm 5 mps 749 mmHg 91%
    10:00 +12°C° 0.2 mm 5 mps 748 mmHg 90%
    11:00 +13°C° 0.2 mm 4 mps 748 mmHg 89%
    12:00 +13°C° 0.2 mm 4 mps 748 mmHg 88%
    13:00 +13°C° 0.2 mm 4 mps 748 mmHg 87%
    14:00 +14°C° 0.2 mm 4 mps 748 mmHg 85%
    15:00 +14°C° 0.2 mm 4 mps 748 mmHg 84%
    16:00 +13°C° 0 mm 4 mps 748 mmHg 86%
    17:00 +13°C° 0 mm 3 mps 748 mmHg 88%
    18:00 +12°C° 0 mm 3 mps 748 mmHg 91%
    19:00 +13°C° 0 mm 2 mps 748 mmHg 91%
    20:00 +13°C° 0 mm 2 mps 748 mmHg 92%
    21:00 +12°C° 0 mm 2 mps 749 mmHg 92%
    22:00 +12°C° 0 mm 2 mps 749 mmHg 92%
    23:00 +10°C° 0 mm 2 mps 749 mmHg 92%

    Day after tomorrow, 24 October, Thursday

    Time Temperature Precipitation Wind Pressure Humidity
    00:00 +10°C° 0 mm 2 mps 749 mmHg 91%
    01:00 +10°C° 0 mm 1 mps 749 mmHg 91%
    02:00 +10°C° 0 mm 1 mps 749 mmHg 91%
    03:00 +9°C° 0 mm 1 mps 749 mmHg 91%
    04:00 +9°C° 0 mm 1 mps 749 mmHg 92%
    05:00 +9°C° 0 mm 1 mps 749 mmHg 92%
    06:00 +8°C° 0 mm 1 mps 749 mmHg 93%
    07:00 +9°C° 0 mm 1 mps 750 mmHg 91%
    08:00 +9°C° 0 mm 1 mps 750 mmHg 89%
    09:00 +10°C° 0 mm 1 mps 750 mmHg 87%
    10:00 +11°C° 0 mm 1 mps 750 mmHg 83%
    11:00 +11°C° 0 mm 1 mps 750 mmHg 79%
    12:00 +12°C° 0 mm 1 mps 750 mmHg 74%
    13:00 +12°C° 0 mm 1 mps 750 mmHg 73%
    14:00 +13°C° 0 mm 1 mps 750 mmHg 71%
    15:00 +13°C° 0 mm 1 mps 750 mmHg 70%
    16:00 +12°C° 0 mm 1 mps 751 mmHg 73%
    17:00 +11°C° 0 mm 1 mps 751 mmHg 77%
    18:00 +11°C° 0 mm 1 mps 751 mmHg 80%
    19:00 +10°C° 0 mm 1 mps 751 mmHg 81%
    20:00 +10°C° 0 mm 1 mps 751 mmHg 81%
    21:00 +10°C° 0 mm 1 mps 751 mmHg 82%
    22:00 +10°C° 0 mm 1 mps 752 mmHg 82%
    23:00 +10°C° 0 mm 1 mps 752 mmHg 82%

    25 October, Friday

    Time Temperature Precipitation Wind Pressure Humidity
    00:00 +10°C° 0 mm 1 mps 752 mmHg 81%
    01:00 +9°C° 0 mm 1 mps 752 mmHg 82%
    02:00 +8°C° 0 mm 0 mps 752 mmHg 83%
    03:00 +7°C° 0 mm 0 mps 752 mmHg 84%
    04:00 +8°C° 0 mm 1 mps 752 mmHg 86%
    05:00 +7°C° 0 mm 1 mps 752 mmHg 87%
    06:00 +7°C° 0 mm 1 mps 752 mmHg 88%
    07:00 +7°C° 0 mm 1 mps 752 mmHg 87%
    08:00 +7°C° 0 mm 0 mps 752 mmHg 85%
    09:00 +7°C° 0 mm 0 mps 752 mmHg 83%
    10:00 +8°C° 0 mm 0 mps 753 mmHg 78%
    11:00 +9°C° 0 mm 0 mps 753 mmHg 74%
    12:00 +10°C° 0 mm 0 mps 753 mmHg 69%
    13:00 +12°C° 0 mm 1 mps 753 mmHg 68%
    14:00 +12°C° 0 mm 1 mps 753 mmHg 67%
    15:00 +12°C° 0 mm 1 mps 752 mmHg 66%
    16:00 +11°C° 0 mm 1 mps 752 mmHg 71%
    17:00 +10°C° 0 mm 1 mps 752 mmHg 76%
    18:00 +9°C° 0 mm 1 mps 752 mmHg 81%
    19:00 +9°C° 0 mm 1 mps 752 mmHg 83%
    20:00 +8°C° 0 mm 2 mps 752 mmHg 85%
    21:00 +8°C° 0 mm 2 mps 752 mmHg 87%
    22:00 +7°C° 0 mm 2 mps 752 mmHg 88%
    23:00 +7°C° 0 mm 3 mps 752 mmHg 88%

    26 October, Saturday

    Time Temperature Precipitation Wind Pressure Humidity
    00:00 +7°C° 0 mm 3 mps 752 mmHg 89%
    01:00 +7°C° 0 mm 3 mps 751 mmHg 90%
    02:00 +7°C° 0 mm 3 mps 751 mmHg 91%
    03:00 +7°C° 0 mm 3 mps 751 mmHg 92%
    04:00 +7°C° 0 mm 3 mps 751 mmHg 93%
    05:00 +7°C° 0 mm 3 mps 751 mmHg 94%
    06:00 +8°C° 0 mm 3 mps 751 mmHg 95%
    07:00 +7°C° 0 mm 4 mps 750 mmHg 94%
    08:00 +8°C° 0 mm 4 mps 750 mmHg 92%
    09:00 +9°C° 0 mm 5 mps 750 mmHg 91%
    10:00 +10°C° 0 mm 5 mps 750 mmHg 85%
    11:00 +13°C° 0 mm 5 mps 750 mmHg 80%
    12:00 +14°C° 0 mm 6 mps 750 mmHg 74%
    13:00 +14°C° 0 mm 6 mps 749 mmHg 73%
    14:00 +14°C° 0 mm 6 mps 749 mmHg 71%
    15:00 +15°C° 0 mm 6 mps 748 mmHg 70%
    16:00 +14°C° 0 mm 6 mps 748 mmHg 74%
    17:00 +13°C° 0 mm 5 mps 748 mmHg 78%
    18:00 +12°C° 0 mm 5 mps 748 mmHg 81%
    19:00 +11°C° 0 mm 6 mps 747 mmHg 82%
    20:00 +11°C° 0 mm 6 mps 747 mmHg 82%
    21:00 +11°C° 0 mm 6 mps 747 mmHg 82%
    22:00 +11°C° 0 mm 6 mps 747 mmHg 83%
    23:00 +10°C° 0 mm 6 mps 746 mmHg 83%

    27 October, Sunday

    Time Temperature Precipitation Wind Pressure Humidity
    00:00 +10°C° 0 mm 6 mps 746 mmHg 83%
    01:00 +10°C° 0 mm 6 mps 746 mmHg 83%
    02:00 +10°C° 0 mm 6 mps 745 mmHg 83%
    03:00 +10°C° 0 mm 6 mps 745 mmHg 84%
    04:00 +10°C° 0 mm 7 mps 745 mmHg 83%
    05:00 +10°C° 0 mm 7 mps 744 mmHg 82%
    06:00 +9°C° 0 mm 7 mps 744 mmHg 82%
    07:00 +10°C° 0 mm 7 mps 744 mmHg 80%
    08:00 +10°C° 0 mm 7 mps 743 mmHg 79%
    09:00 +10°C° 0 mm 8 mps 743 mmHg 77%
    10:00 +11°C° 0 mm 8 mps 743 mmHg 74%
    11:00 +12°C° 0 mm 8 mps 743 mmHg 71%
    12:00 +13°C° 0 mm 8 mps 743 mmHg 68%
    13:00 +14°C° 0 mm 7 mps 742 mmHg 69%
    14:00 +14°C° 0 mm 7 mps 742 mmHg 70%
    15:00 +14°C° 0 mm 6 mps 742 mmHg 71%
    16:00 +13°C° 0.3 mm 6 mps 741 mmHg 75%
    17:00 +13°C° 0.3 mm 6 mps 741 mmHg 80%
    18:00 +12°C° 0.3 mm 5 mps 741 mmHg 84%
    19:00 +12°C° 1.1 mm 5 mps 741 mmHg 86%
    20:00 +10°C° 1.1 mm 5 mps 740 mmHg 88%
    21:00 +10°C° 1.1 mm 5 mps 740 mmHg 91%
    22:00 +8°C° 1.5 mm 5 mps 740 mmHg 89%
    23:00 +7°C° 1.5 mm 6 mps 740 mmHg 88%

    28 October, Monday

    Time Temperature Precipitation Wind Pressure Humidity
    00:00 +5°C° 1.5 mm 6 mps 740 mmHg 86%
    01:00 +6°C° 0.4 mm 5 mps 740 mmHg 84%
    02:00 +6°C° 0.4 mm 5 mps 740 mmHg 83%
    03:00 +6°C° 0.4 mm 4 mps 741 mmHg 81%
    04:00 +5°C° 0 mm 4 mps 741 mmHg 83%
    05:00 +5°C° 0 mm 4 mps 741 mmHg 84%
    06:00 +4°C° 0 mm 4 mps 741 mmHg 86%
    07:00 +4°C° 0 mm 4 mps 742 mmHg 85%
    08:00 +4°C° 0 mm 4 mps 742 mmHg 83%
    09:00 +3°C° 0 mm 5 mps 742 mmHg 82%
    10:00 +5°C° 0 mm 5 mps 742 mmHg 78%
    11:00 +6°C° 0 mm 5 mps 742 mmHg 73%
    12:00 +6°C° 0 mm 5 mps 742 mmHg 69%
    13:00 +7°C° 0 mm 6 mps 742 mmHg 69%
    14:00 +7°C° 0 mm 6 mps 742 mmHg 69%
    15:00 +7°C° 0 mm 6 mps 741 mmHg 68%
    16:00 +7°C° 0 mm 6 mps 741 mmHg 70%
    17:00 +6°C° 0 mm 5 mps 741 mmHg 71%
    18:00 +6°C° 0 mm 5 mps 741 mmHg 73%
    19:00 +6°C° 0.1 mm 5 mps 741 mmHg 73%
    20:00 +5°C° 0.1 mm 5 mps 741 mmHg 73%
    21:00 +5°C° 0.1 mm 5 mps 741 mmHg 74%
    22:00 +5°C° 0 mm 5 mps 740 mmHg 74%
    23:00 +3°C° 0 mm 5 mps 740 mmHg 74%
    Show more